Time,TemperatureF,DewpointF,PressureIn,WindDirection,WindDirectionDegrees,WindSpeedMPH,WindSpeedGustMPH,Humidity,HourlyPrecipIn,Conditions,Clouds,dailyrainin,SoftwareType,DateUTC
2013-05-10 00:04:00,60.0,58.0,29.91,SE,135,0.0,0.0,92,0.00,,,0.00,TxWx,2013-05-10 04:04:00,
2013-05-10 00:10:00,60.0,58.0,29.91,ESE,112,0.0,0.0,92,0.00,,,0.00,TxWx,2013-05-10 04:10:00,
2013-05-10 00:16:00,59.0,57.0,29.91,ESE,112,0.0,0.0,93,0.00,,,0.00,TxWx,2013-05-10 04:16:00,
2013-05-10 00:23:00,59.0,57.0,29.91,SSE,157,0.0,0.0,93,0.00,,,0.00,TxWx,2013-05-10 04:23:00,
2013-05-10 00:28:00,59.0,57.0,29.91,SSE,157,0.0,0.0,93,0.00,,,0.00,TxWx,2013-05-10 04:28:00,
2013-05-10 00:33:00,59.0,57.0,29.91,SSE,157,0.0,0.0,94,0.00,,,0.00,TxWx,2013-05-10 04:33:00,
2013-05-10 00:38:00,58.0,56.0,29.91,SSE,157,0.0,1.0,94,0.00,,,0.00,TxWx,2013-05-10 04:38:00,
2013-05-10 00:43:00,58.0,56.0,29.91,SSE,157,0.0,1.0,94,0.00,,,0.00,TxWx,2013-05-10 04:43:00,
2013-05-10 00:48:00,58.0,56.0,29.91,WSW,247,0.0,0.0,95,0.00,,,0.00,TxWx,2013-05-10 04:48:00,
2013-05-10 00:53:00,58.0,57.0,29.91,WSW,247,0.0,0.0,95,0.00,,,0.00,TxWx,2013-05-10 04:53:00,
2013-05-10 00:58:00,58.0,57.0,29.91,WSW,247,0.0,0.0,95,0.00,,,0.00,TxWx,2013-05-10 04:58:00,
2013-05-10 01:03:00,58.0,57.0,29.91,WSW,247,0.0,0.0,96,0.00,,,0.00,TxWx,2013-05-10 05:03:00,
2013-05-10 01:09:00,57.0,56.0,29.91,WSW,247,0.0,0.0,96,0.00,,,0.00,TxWx,2013-05-10 05:09:00,
2013-05-10 01:18:00,57.0,56.0,29.91,WSW,247,1.0,2.0,96,0.00,,,0.00,TxWx,2013-05-10 05:18:00,
2013-05-10 01:23:00,57.0,56.0,29.91,WSW,247,0.0,0.0,97,0.00,,,0.00,TxWx,2013-05-10 05:23:00,
2013-05-10 01:28:00,57.0,56.0,29.91,WSW,247,0.0,0.0,97,0.00,,,0.00,TxWx,2013-05-10 05:28:00,
2013-05-10 01:33:00,57.0,56.0,29.91,WSW,247,0.0,0.0,97,0.00,,,0.00,TxWx,2013-05-10 05:33:00,
2013-05-10 01:38:00,57.0,56.0,29.91,WSW,247,0.0,0.0,97,0.00,,,0.00,TxWx,2013-05-10 05:38:00,
2013-05-10 01:43:00,57.0,56.0,29.91,WSW,247,0.0,0.0,98,0.00,,,0.00,TxWx,2013-05-10 05:43:00,
2013-05-10 01:48:00,57.0,56.0,29.91,West,270,2.0,2.0,98,0.00,,,0.00,TxWx,2013-05-10 05:48:00,
2013-05-10 01:53:00,57.0,56.0,29.91,West,270,0.0,1.0,98,0.00,,,0.00,TxWx,2013-05-10 05:53:00,
2013-05-10 01:58:00,57.0,56.0,29.92,West,270,0.0,0.0,98,0.00,,,0.00,TxWx,2013-05-10 05:58:00,
2013-05-10 02:03:00,57.0,56.0,29.92,West,270,0.0,0.0,98,0.00,,,0.00,TxWx,2013-05-10 06:03:00,
2013-05-10 02:08:00,56.0,56.0,29.92,West,270,0.0,0.0,99,0.00,,,0.00,TxWx,2013-05-10 06:08:00,
2013-05-10 02:13:00,56.0,56.0,29.92,West,270,0.0,0.0,99,0.00,,,0.00,TxWx,2013-05-10 06:13:00,
2013-05-10 02:18:00,56.0,56.0,29.91,West,270,0.0,0.0,99,0.00,,,0.00,TxWx,2013-05-10 06:18:00,
2013-05-10 02:23:00,56.0,56.0,29.91,West,270,0.0,0.0,99,0.00,,,0.00,TxWx,2013-05-10 06:23:00,
2013-05-10 02:28:00,56.0,56.0,29.92,West,270,0.0,0.0,99,0.00,,,0.00,TxWx,2013-05-10 06:28:00,
2013-05-10 02:34:00,56.0,56.0,29.92,West,270,0.0,0.0,100,0.00,,,0.00,TxWx,2013-05-10 06:34:00,
2013-05-10 02:39:00,56.0,56.0,29.92,West,270,0.0,0.0,100,0.00,,,0.00,TxWx,2013-05-10 06:39:00,
2013-05-10 02:44:00,56.0,56.0,29.92,West,270,0.0,1.0,100,0.00,,,0.00,TxWx,2013-05-10 06:44:00,
2013-05-10 02:49:00,56.0,56.0,29.92,West,270,0.0,1.0,100,0.00,,,0.00,TxWx,2013-05-10 06:49:00,
2013-05-10 02:54:00,56.0,56.0,29.92,West,270,0.0,0.0,100,0.00,,,0.00,TxWx,2013-05-10 06:54:00,
2013-05-10 02:59:00,56.0,56.0,29.92,West,270,0.0,0.0,100,0.00,,,0.00,TxWx,2013-05-10 06:59:00,
2013-05-10 03:04:00,56.0,56.0,29.92,West,270,0.0,0.0,100,0.00,,,0.00,TxWx,2013-05-10 07:04:00,
2013-05-10 03:09:00,56.0,56.0,29.92,West,270,0.0,0.0,100,0.00,,,0.00,TxWx,2013-05-10 07:09:00,
2013-05-10 03:14:00,56.0,56.0,29.93,West,270,0.0,0.0,100,0.00,,,0.00,TxWx,2013-05-10 07:14:00,
2013-05-10 03:19:00,56.0,56.0,29.93,WSW,247,0.0,0.0,100,0.00,,,0.00,TxWx,2013-05-10 07:19:00,
2013-05-10 03:24:00,56.0,56.0,29.93,SE,135,0.0,0.0,100,0.00,,,0.00,TxWx,2013-05-10 07:24:00,
2013-05-10 03:29:00,56.0,56.0,29.93,SE,135,0.0,0.0,100,0.00,,,0.00,TxWx,2013-05-10 07:29:00,
2013-05-10 03:34:00,56.0,56.0,29.93,SE,135,0.0,0.0,100,0.00,,,0.00,TxWx,2013-05-10 07:34:00,
2013-05-10 03:39:00,56.0,56.0,29.93,SE,135,0.0,0.0,100,0.00,,,0.00,TxWx,2013-05-10 07:39:00,
2013-05-10 03:44:00,56.0,56.0,29.93,SE,135,0.0,0.0,100,0.00,,,0.00,TxWx,2013-05-10 07:44:00,
2013-05-10 03:50:00,56.0,56.0,29.93,SE,135,0.0,0.0,100,0.00,,,0.00,TxWx,2013-05-10 07:50:00,
2013-05-10 03:55:00,55.0,55.0,29.93,SE,135,0.0,0.0,100,0.00,,,0.00,TxWx,2013-05-10 07:55:00,
2013-05-10 04:00:00,56.0,56.0,29.93,SE,135,0.0,0.0,100,0.00,,,0.00,TxWx,2013-05-10 08:00:00,
2013-05-10 04:08:00,55.0,55.0,29.93,SE,135,0.0,0.0,100,0.00,,,0.00,TxWx,2013-05-10 08:08:00,
2013-05-10 04:13:00,55.0,55.0,29.93,SE,135,0.0,0.0,100,0.00,,,0.00,TxWx,2013-05-10 08:13:00,
2013-05-10 04:18:00,55.0,55.0,29.93,SW,225,0.0,0.0,100,0.00,,,0.00,TxWx,2013-05-10 08:18:00,
2013-05-10 04:23:00,55.0,55.0,29.93,SW,225,0.0,0.0,100,0.00,,,0.00,TxWx,2013-05-10 08:23:00,
2013-05-10 04:28:00,55.0,55.0,29.93,SW,225,0.0,0.0,100,0.00,,,0.00,TxWx,2013-05-10 08:28:00,
2013-05-10 04:33:00,55.0,55.0,29.93,SW,225,0.0,0.0,100,0.00,,,0.00,TxWx,2013-05-10 08:33:00,
2013-05-10 04:38:00,55.0,55.0,29.94,SW,225,0.0,0.0,100,0.00,,,0.00,TxWx,2013-05-10 08:38:00,
2013-05-10 04:43:00,55.0,55.0,29.94,SW,225,0.0,0.0,100,0.00,,,0.00,TxWx,2013-05-10 08:43:00,
2013-05-10 04:48:00,55.0,55.0,29.94,SW,225,0.0,0.0,100,0.00,,,0.00,TxWx,2013-05-10 08:48:00,
2013-05-10 04:53:00,55.0,55.0,29.93,ESE,112,0.0,0.0,100,0.00,,,0.00,TxWx,2013-05-10 08:53:00,
2013-05-10 04:58:00,55.0,55.0,29.94,ESE,112,0.0,0.0,100,0.00,,,0.00,TxWx,2013-05-10 08:58:00,
2013-05-10 05:04:00,55.0,55.0,29.94,ESE,112,0.0,0.0,100,0.00,,,0.00,TxWx,2013-05-10 09:04:00,
2013-05-10 05:09:00,55.0,55.0,29.94,SE,135,0.0,0.0,100,0.00,,,0.00,TxWx,2013-05-10 09:09:00,
2013-05-10 05:14:00,55.0,55.0,29.94,ESE,112,0.0,0.0,100,0.00,,,0.00,TxWx,2013-05-10 09:14:00,
2013-05-10 05:19:00,55.0,55.0,29.94,SSE,157,1.0,1.0,100,0.00,,,0.00,TxWx,2013-05-10 09:19:00,
2013-05-10 05:24:00,55.0,55.0,29.94,SE,135,1.0,2.0,100,0.00,,,0.00,TxWx,2013-05-10 09:24:00,
2013-05-10 05:29:00,55.0,55.0,29.94,ESE,112,2.0,3.0,100,0.00,,,0.00,TxWx,2013-05-10 09:29:00,
2013-05-10 05:34:00,55.0,55.0,29.94,ESE,112,1.0,2.0,100,0.00,,,0.00,TxWx,2013-05-10 09:34:00,
2013-05-10 05:39:00,55.0,55.0,29.94,ESE,112,1.0,2.0,100,0.00,,,0.00,TxWx,2013-05-10 09:39:00,
2013-05-10 05:44:00,55.0,55.0,29.94,SSE,157,0.0,0.0,100,0.00,,,0.00,TxWx,2013-05-10 09:44:00,
2013-05-10 05:49:00,55.0,55.0,29.95,ESE,112,0.0,0.0,100,0.00,,,0.00,TxWx,2013-05-10 09:49:00,
2013-05-10 05:54:00,55.0,55.0,29.95,SSE,157,1.0,3.0,100,0.00,,,0.00,TxWx,2013-05-10 09:54:00,
2013-05-10 05:59:00,55.0,55.0,29.94,SE,135,0.0,0.0,100,0.00,,,0.00,TxWx,2013-05-10 09:59:00,
2013-05-10 06:04:00,55.0,55.0,29.95,South,180,3.0,3.0,100,0.00,,,0.00,TxWx,2013-05-10 10:04:00,
2013-05-10 06:09:00,55.0,55.0,29.95,South,180,2.0,3.0,100,0.00,,,0.00,TxWx,2013-05-10 10:09:00,
2013-05-10 06:14:00,55.0,55.0,29.96,SSE,157,2.0,3.0,100,0.00,,,0.00,TxWx,2013-05-10 10:14:00,
2013-05-10 06:19:00,55.0,55.0,29.96,SSW,202,5.0,5.0,100,0.00,,,0.00,TxWx,2013-05-10 10:19:00,
2013-05-10 06:25:00,55.0,55.0,29.96,South,180,5.0,5.0,100,0.00,,,0.00,TxWx,2013-05-10 10:25:00,
2013-05-10 06:30:00,55.0,55.0,29.96,South,180,3.0,4.0,100,0.00,,,0.00,TxWx,2013-05-10 10:30:00,
2013-05-10 06:35:00,55.0,55.0,29.96,SSE,157,4.0,4.0,100,0.00,,,0.00,TxWx,2013-05-10 10:35:00,
2013-05-10 06:40:00,55.0,55.0,29.96,SW,225,3.0,3.0,100,0.00,,,0.00,TxWx,2013-05-10 10:40:00,
2013-05-10 06:45:00,55.0,55.0,29.97,SSE,157,3.0,3.0,100,0.00,,,0.00,TxWx,2013-05-10 10:45:00,
2013-05-10 06:50:00,55.0,55.0,29.97,South,180,3.0,3.0,100,0.00,,,0.00,TxWx,2013-05-10 10:50:00,
2013-05-10 06:55:00,55.0,55.0,29.97,South,180,3.0,3.0,100,0.00,,,0.00,TxWx,2013-05-10 10:55:00,
2013-05-10 07:00:00,55.0,55.0,29.97,South,180,4.0,4.0,100,0.00,,,0.00,TxWx,2013-05-10 11:00:00,
2013-05-10 07:05:00,55.0,55.0,29.97,South,180,3.0,4.0,100,0.00,,,0.00,TxWx,2013-05-10 11:05:00,
2013-05-10 07:10:00,55.0,55.0,29.97,SE,135,3.0,4.0,100,0.00,,,0.00,TxWx,2013-05-10 11:10:00,
2013-05-10 07:15:00,55.0,55.0,29.97,SSE,157,1.0,3.0,100,0.00,,,0.00,TxWx,2013-05-10 11:15:00,
2013-05-10 07:20:00,56.0,56.0,29.97,SSE,157,4.0,4.0,100,0.00,,,0.00,TxWx,2013-05-10 11:20:00,
2013-05-10 07:25:00,56.0,56.0,29.97,SSE,157,2.0,2.0,100,0.00,,,0.00,TxWx,2013-05-10 11:25:00,
2013-05-10 07:31:00,56.0,56.0,29.97,SSE,157,3.0,4.0,100,0.00,,,0.00,TxWx,2013-05-10 11:31:00,
2013-05-10 07:36:00,56.0,56.0,29.97,ESE,112,3.0,3.0,100,0.00,,,0.00,TxWx,2013-05-10 11:36:00,
2013-05-10 07:41:00,56.0,56.0,29.97,SSE,157,5.0,5.0,100,0.00,,,0.00,TxWx,2013-05-10 11:41:00,
2013-05-10 07:46:00,56.0,56.0,29.97,SSE,157,3.0,3.0,100,0.00,,,0.00,TxWx,2013-05-10 11:46:00,
2013-05-10 07:51:00,57.0,57.0,29.97,ESE,112,0.0,0.0,100,0.00,,,0.00,TxWx,2013-05-10 11:51:00,
2013-05-10 07:56:00,57.0,57.0,29.97,SSE,157,5.0,5.0,100,0.00,,,0.00,TxWx,2013-05-10 11:56:00,
2013-05-10 08:01:00,57.0,57.0,29.97,SE,135,2.0,3.0,100,0.00,,,0.00,TxWx,2013-05-10 12:01:00,
2013-05-10 08:06:00,58.0,58.0,29.97,ESE,112,1.0,1.0,100,0.00,,,0.00,TxWx,2013-05-10 12:06:00,
2013-05-10 08:11:00,58.0,58.0,29.97,ESE,112,2.0,3.0,100,0.00,,,0.00,TxWx,2013-05-10 12:11:00,
2013-05-10 08:16:00,59.0,59.0,29.97,East,90,0.0,2.0,100,0.00,,,0.00,TxWx,2013-05-10 12:16:00,
2013-05-10 08:21:00,60.0,60.0,29.97,East,90,0.0,2.0,100,0.00,,,0.00,TxWx,2013-05-10 12:21:00,
2013-05-10 08:26:00,60.0,60.0,29.97,ENE,67,3.0,3.0,100,0.00,,,0.00,TxWx,2013-05-10 12:26:00,
2013-05-10 08:31:00,61.0,61.0,29.98,SE,135,0.0,1.0,100,0.00,,,0.00,TxWx,2013-05-10 12:31:00,
2013-05-10 08:36:00,61.0,61.0,29.97,SE,135,1.0,1.0,100,0.00,,,0.00,TxWx,2013-05-10 12:36:00,
2013-05-10 08:41:00,62.0,62.0,29.97,SSE,157,5.0,5.0,100,0.00,,,0.00,TxWx,2013-05-10 12:41:00,
2013-05-10 08:47:00,62.0,62.0,29.97,ENE,67,0.0,0.0,100,0.00,,,0.00,TxWx,2013-05-10 12:47:00,
2013-05-10 08:52:00,63.0,63.0,29.97,ESE,112,3.0,4.0,100,0.00,,,0.00,TxWx,2013-05-10 12:52:00,
2013-05-10 08:57:00,63.0,62.0,29.97,SSE,157,6.0,6.0,98,0.00,,,0.00,TxWx,2013-05-10 12:57:00,
2013-05-10 08:58:00,78.0,56.0,29.86,ESE,112,2.0,3.0,47,0.00,,,0.00,TxWx,2013-05-10 12:58:00,
2013-05-10 08:59:00,78.0,56.0,29.86,SE,135,3.0,3.0,47,0.00,,,0.00,TxWx,2013-05-10 12:59:00,
2013-05-10 09:00:00,78.0,56.0,29.86,SE,135,3.0,3.0,48,0.00,,,0.00,TxWx,2013-05-10 13:00:00,
2013-05-10 09:01:00,78.0,56.0,29.86,ESE,112,8.0,8.0,48,0.00,,,0.00,TxWx,2013-05-10 13:01:00,
2013-05-10 09:02:00,63.0,62.0,29.97,SSE,157,5.0,5.0,97,0.00,,,0.00,TxWx,2013-05-10 13:02:00,
2013-05-10 09:07:00,63.0,62.0,29.97,South,180,6.0,7.0,96,0.00,,,0.00,TxWx,2013-05-10 13:07:00,
2013-05-10 09:12:00,64.0,62.0,29.97,SE,135,1.0,1.0,95,0.00,,,0.00,TxWx,2013-05-10 13:12:00,
2013-05-10 09:17:00,64.0,62.0,29.97,ESE,112,3.0,3.0,93,0.00,,,0.00,TxWx,2013-05-10 13:17:00,
2013-05-10 09:22:00,64.0,61.0,29.97,ESE,112,4.0,5.0,90,0.00,,,0.00,TxWx,2013-05-10 13:22:00,
2013-05-10 09:27:00,65.0,62.0,29.97,South,180,5.0,5.0,89,0.00,,,0.00,TxWx,2013-05-10 13:27:00,
2013-05-10 09:32:00,65.0,61.0,29.97,South,180,5.0,7.0,87,0.00,,,0.00,TxWx,2013-05-10 13:32:00,
2013-05-10 09:35:00,78.0,58.0,29.84,East,90,3.0,4.0,51,0.00,,,0.00,TxWx,2013-05-10 13:35:00,
2013-05-10 09:36:00,78.0,58.0,29.84,ESE,112,3.0,4.0,51,0.00,,,0.00,TxWx,2013-05-10 13:36:00,
2013-05-10 09:37:00,65.0,60.0,29.97,ESE,112,2.0,3.0,85,0.00,,,0.00,TxWx,2013-05-10 13:37:00,
2013-05-10 09:42:00,66.0,61.0,29.97,SSE,157,4.0,6.0,83,0.00,,,0.00,TxWx,2013-05-10 13:42:00,
2013-05-10 09:43:00,78.0,58.0,29.84,SE,135,4.0,5.0,51,0.00,,,0.00,TxWx,2013-05-10 13:43:00,
2013-05-10 09:44:00,78.0,58.0,29.84,ESE,112,3.0,5.0,51,0.00,,,0.00,TxWx,2013-05-10 13:44:00,
2013-05-10 09:45:00,78.0,58.0,29.84,SSE,157,5.0,6.0,51,0.00,,,0.00,TxWx,2013-05-10 13:45:00,
2013-05-10 09:46:00,78.0,58.0,29.84,ESE,112,3.0,6.0,51,0.00,,,0.00,TxWx,2013-05-10 13:46:00,
2013-05-10 09:47:00,66.0,60.0,29.97,SSE,157,5.0,7.0,81,0.00,,,0.00,TxWx,2013-05-10 13:47:00,
2013-05-10 09:48:00,77.0,58.0,29.84,ESE,112,3.0,3.0,51,0.00,,,0.00,TxWx,2013-05-10 13:48:00,
2013-05-10 09:49:00,78.0,58.0,29.84,ESE,112,3.0,3.0,51,0.00,,,0.00,TxWx,2013-05-10 13:49:00,
2013-05-10 09:50:00,77.0,57.0,29.84,SE,135,3.0,4.0,51,0.00,,,0.00,TxWx,2013-05-10 13:50:00,
2013-05-10 09:51:00,77.0,57.0,29.84,SE,135,3.0,5.0,51,0.00,,,0.00,TxWx,2013-05-10 13:51:00,
2013-05-10 09:52:00,66.0,60.0,29.97,SW,225,3.0,3.0,81,0.00,,,0.00,TxWx,2013-05-10 13:52:00,
2013-05-10 09:53:00,77.0,57.0,29.84,SE,135,3.0,4.0,51,0.00,,,0.00,TxWx,2013-05-10 13:53:00,
2013-05-10 09:58:00,67.0,61.0,29.97,ESE,112,4.0,4.0,80,0.00,,,0.00,TxWx,2013-05-10 13:58:00,
2013-05-10 10:03:00,67.0,60.0,29.97,South,180,5.0,5.0,79,0.00,,,0.00,TxWx,2013-05-10 14:03:00,
2013-05-10 10:08:00,67.0,60.0,29.97,SW,225,3.0,3.0,77,0.00,,,0.00,TxWx,2013-05-10 14:08:00,
2013-05-10 10:10:00,77.0,57.0,29.85,SSE,157,6.0,6.0,51,0.00,,,0.00,TxWx,2013-05-10 14:10:00,
2013-05-10 10:11:00,77.0,57.0,29.85,SSE,157,3.0,3.0,51,0.00,,,0.00,TxWx,2013-05-10 14:11:00,
2013-05-10 10:12:00,77.0,57.0,29.85,SE,135,2.0,3.0,51,0.00,,,0.00,TxWx,2013-05-10 14:12:00,
2013-05-10 10:13:00,68.0,60.0,29.97,South,180,8.0,8.0,76,0.00,,,0.00,TxWx,2013-05-10 14:13:00,
2013-05-10 10:14:00,77.0,57.0,29.85,SE,135,3.0,6.0,51,0.00,,,0.00,TxWx,2013-05-10 14:14:00,
2013-05-10 10:15:00,77.0,57.0,29.85,SSE,157,3.0,4.0,51,0.00,,,0.00,TxWx,2013-05-10 14:15:00,
2013-05-10 10:18:00,68.0,60.0,29.97,ESE,112,5.0,6.0,75,0.00,,,0.00,TxWx,2013-05-10 14:18:00,
2013-05-10 10:23:00,68.0,60.0,29.96,South,180,4.0,4.0,75,0.00,,,0.00,TxWx,2013-05-10 14:23:00,
2013-05-10 10:28:00,68.0,59.0,29.96,SE,135,6.0,7.0,73,0.00,,,0.00,TxWx,2013-05-10 14:28:00,
2013-05-10 10:33:00,68.0,59.0,29.96,SE,135,5.0,7.0,72,0.00,,,0.00,TxWx,2013-05-10 14:33:00,
2013-05-10 10:38:00,69.0,59.0,29.96,ESE,112,4.0,5.0,71,0.00,,,0.00,TxWx,2013-05-10 14:38:00,
2013-05-10 10:43:00,69.0,59.0,29.96,ESE,112,3.0,3.0,71,0.00,,,0.00,TxWx,2013-05-10 14:43:00,
2013-05-10 10:47:00,76.0,57.0,29.85,ESE,112,4.0,5.0,53,0.00,,,0.00,TxWx,2013-05-10 14:47:00,
2013-05-10 10:48:00,69.0,58.0,29.96,East,90,6.0,7.0,69,0.00,,,0.00,TxWx,2013-05-10 14:48:00,
2013-05-10 10:49:00,76.0,58.0,29.85,SSE,157,3.0,4.0,53,0.00,,,0.00,TxWx,2013-05-10 14:49:00,
2013-05-10 10:53:00,69.0,58.0,29.96,ESE,112,5.0,5.0,69,0.00,,,0.00,TxWx,2013-05-10 14:53:00,
2013-05-10 10:58:00,70.0,59.0,29.96,SE,135,0.0,0.0,69,0.00,,,0.00,TxWx,2013-05-10 14:58:00,
2013-05-10 11:03:00,71.0,59.0,29.95,East,90,5.0,5.0,67,0.00,,,0.00,TxWx,2013-05-10 15:03:00,
2013-05-10 11:08:00,72.0,59.0,29.96,SSE,157,4.0,5.0,65,0.00,,,0.00,TxWx,2013-05-10 15:08:00,
2013-05-10 11:14:00,71.0,58.0,29.96,SSE,157,4.0,4.0,64,0.00,,,0.00,TxWx,2013-05-10 15:14:00,
2013-05-10 11:19:00,71.0,58.0,29.96,ESE,112,1.0,1.0,63,0.00,,,0.00,TxWx,2013-05-10 15:19:00,
2013-05-10 11:24:00,71.0,58.0,29.96,ESE,112,0.0,1.0,63,0.00,,,0.00,TxWx,2013-05-10 15:24:00,
2013-05-10 11:29:00,71.0,57.0,29.95,ESE,112,3.0,5.0,61,0.00,,,0.00,TxWx,2013-05-10 15:29:00,
2013-05-10 11:34:00,72.0,58.0,29.95,ENE,67,1.0,2.0,62,0.00,,,0.00,TxWx,2013-05-10 15:34:00,
2013-05-10 11:39:00,72.0,58.0,29.95,East,90,2.0,3.0,62,0.00,,,0.00,TxWx,2013-05-10 15:39:00,
2013-05-10 11:44:00,73.0,58.0,29.95,East,90,3.0,3.0,61,0.00,,,0.00,TxWx,2013-05-10 15:44:00,
2013-05-10 11:49:00,73.0,58.0,29.95,ENE,67,3.0,4.0,60,0.00,,,0.00,TxWx,2013-05-10 15:49:00,
2013-05-10 11:54:00,74.0,59.0,29.94,NNE,22,2.0,3.0,60,0.00,,,0.00,TxWx,2013-05-10 15:54:00,
2013-05-10 11:59:00,74.0,58.0,29.94,NE,45,5.0,6.0,58,0.00,,,0.00,TxWx,2013-05-10 15:59:00,
2013-05-10 12:04:00,73.0,58.0,29.94,NNE,22,5.0,5.0,59,0.00,,,0.00,TxWx,2013-05-10 16:04:00,
2013-05-10 12:09:00,73.0,58.0,29.94,NNE,22,3.0,3.0,59,0.00,,,0.00,TxWx,2013-05-10 16:09:00,
2013-05-10 12:14:00,74.0,58.0,29.93,ENE,67,1.0,2.0,57,0.00,,,0.00,TxWx,2013-05-10 16:14:00,
2013-05-10 12:20:00,74.0,57.0,29.93,ENE,67,5.0,5.0,55,0.00,,,0.00,TxWx,2013-05-10 16:20:00,
2013-05-10 12:25:00,75.0,57.0,29.93,ENE,67,0.0,1.0,54,0.00,,,0.00,TxWx,2013-05-10 16:25:00,
2013-05-10 12:30:00,75.0,57.0,29.93,SSE,157,2.0,4.0,53,0.00,,,0.00,TxWx,2013-05-10 16:30:00,
2013-05-10 12:35:00,75.0,56.0,29.93,East,90,3.0,3.0,53,0.00,,,0.00,TxWx,2013-05-10 16:35:00,
2013-05-10 12:40:00,75.0,56.0,29.93,SSE,157,4.0,6.0,51,0.00,,,0.00,TxWx,2013-05-10 16:40:00,
2013-05-10 12:45:00,75.0,56.0,29.93,South,180,6.0,8.0,51,0.00,,,0.00,TxWx,2013-05-10 16:45:00,
2013-05-10 12:50:00,76.0,57.0,29.93,SSE,157,3.0,3.0,51,0.00,,,0.00,TxWx,2013-05-10 16:50:00,
2013-05-10 12:55:00,76.0,56.0,29.93,ESE,112,5.0,6.0,50,0.00,,,0.00,TxWx,2013-05-10 16:55:00,
2013-05-10 13:00:00,76.0,55.0,29.93,SE,135,7.0,9.0,49,0.00,,,0.00,TxWx,2013-05-10 17:00:00,
2013-05-10 13:05:00,76.0,55.0,29.93,SE,135,6.0,8.0,49,0.00,,,0.00,TxWx,2013-05-10 17:05:00,
2013-05-10 13:10:00,76.0,56.0,29.93,SSE,157,6.0,6.0,50,0.00,,,0.00,TxWx,2013-05-10 17:10:00,
2013-05-10 13:15:00,77.0,57.0,29.93,ESE,112,8.0,10.0,50,0.00,,,0.00,TxWx,2013-05-10 17:15:00,
2013-05-10 13:20:00,77.0,56.0,29.92,ESE,112,6.0,7.0,49,0.00,,,0.00,TxWx,2013-05-10 17:20:00,
2013-05-10 13:25:00,77.0,56.0,29.92,South,180,4.0,5.0,49,0.00,,,0.00,TxWx,2013-05-10 17:25:00,
2013-05-10 13:31:00,77.0,56.0,29.92,ESE,112,3.0,5.0,49,0.00,,,0.00,TxWx,2013-05-10 17:31:00,
2013-05-10 13:36:00,77.0,56.0,29.91,East,90,5.0,7.0,49,0.00,,,0.00,TxWx,2013-05-10 17:36:00,
2013-05-10 13:41:00,77.0,57.0,29.91,SE,135,6.0,6.0,50,0.00,,,0.00,TxWx,2013-05-10 17:41:00,
2013-05-10 13:46:00,77.0,55.0,29.91,SSE,157,6.0,7.0,48,0.00,,,0.00,TxWx,2013-05-10 17:46:00,
2013-05-10 13:51:00,77.0,56.0,29.91,ESE,112,5.0,6.0,48,0.00,,,0.00,TxWx,2013-05-10 17:51:00,
2013-05-10 13:56:00,77.0,55.0,29.91,ESE,112,4.0,5.0,48,0.00,,,0.00,TxWx,2013-05-10 17:56:00,
2013-05-10 14:01:00,77.0,55.0,29.91,South,180,6.0,6.0,47,0.00,,,0.00,TxWx,2013-05-10 18:01:00,
2013-05-10 14:06:00,77.0,55.0,29.91,South,180,8.0,12.0,47,0.00,,,0.00,TxWx,2013-05-10 18:06:00,
2013-05-10 14:11:00,77.0,55.0,29.91,SW,225,10.0,11.0,47,0.00,,,0.00,TxWx,2013-05-10 18:11:00,
2013-05-10 14:16:00,77.0,55.0,29.91,South,180,7.0,8.0,47,0.00,,,0.00,TxWx,2013-05-10 18:16:00,
2013-05-10 14:21:00,77.0,55.0,29.91,SW,225,3.0,4.0,48,0.00,,,0.00,TxWx,2013-05-10 18:21:00,
2013-05-10 14:26:00,77.0,56.0,29.90,South,180,6.0,6.0,48,0.00,,,0.00,TxWx,2013-05-10 18:26:00,
2013-05-10 14:31:00,77.0,56.0,29.91,SE,135,3.0,5.0,48,0.00,,,0.00,TxWx,2013-05-10 18:31:00,
2013-05-10 14:36:00,78.0,56.0,29.90,ESE,112,3.0,3.0,47,0.00,,,0.00,TxWx,2013-05-10 18:36:00,
2013-05-10 14:42:00,78.0,56.0,29.90,ESE,112,3.0,3.0,47,0.00,,,0.00,TxWx,2013-05-10 18:42:00,
2013-05-10 14:47:00,78.0,55.0,29.89,East,90,0.0,1.0,46,0.00,,,0.00,TxWx,2013-05-10 18:47:00,
2013-05-10 14:52:00,78.0,55.0,29.89,East,90,2.0,5.0,46,0.00,,,0.00,TxWx,2013-05-10 18:52:00,
2013-05-10 14:57:00,79.0,56.0,29.89,SE,135,8.0,8.0,45,0.00,,,0.00,TxWx,2013-05-10 18:57:00,
2013-05-10 15:01:00,71.0,59.0,29.80,South,180,6.0,6.0,67,0.00,,,0.00,TxWx,2013-05-10 19:01:00,
2013-05-10 15:02:00,79.0,56.0,29.89,SSE,157,4.0,6.0,45,0.00,,,0.00,TxWx,2013-05-10 19:02:00,
2013-05-10 15:03:00,71.0,59.0,29.80,ESE,112,4.0,6.0,67,0.00,,,0.00,TxWx,2013-05-10 19:03:00,
2013-05-10 15:04:00,71.0,59.0,29.80,South,180,6.0,10.0,67,0.00,,,0.00,TxWx,2013-05-10 19:04:00,
2013-05-10 15:07:00,78.0,55.0,29.89,SSE,157,6.0,9.0,46,0.00,,,0.00,TxWx,2013-05-10 19:07:00,
2013-05-10 15:10:00,71.0,59.0,29.80,SSW,202,6.0,6.0,67,0.00,,,0.00,TxWx,2013-05-10 19:10:00,
2013-05-10 15:11:00,71.0,59.0,29.80,South,180,3.0,6.0,67,0.00,,,0.00,TxWx,2013-05-10 19:11:00,
2013-05-10 15:12:00,78.0,55.0,29.89,South,180,3.0,4.0,46,0.00,,,0.00,TxWx,2013-05-10 19:12:00,
2013-05-10 15:13:00,71.0,59.0,29.80,SE,135,3.0,4.0,67,0.00,,,0.00,TxWx,2013-05-10 19:13:00,
2013-05-10 15:14:00,71.0,59.0,29.80,East,90,5.0,6.0,67,0.00,,,0.00,TxWx,2013-05-10 19:14:00,
2013-05-10 15:15:00,71.0,59.0,29.80,SSE,157,8.0,10.0,67,0.00,,,0.00,TxWx,2013-05-10 19:15:00,
2013-05-10 15:16:00,71.0,59.0,29.80,SE,135,6.0,6.0,67,0.00,,,0.00,TxWx,2013-05-10 19:16:00,
2013-05-10 15:17:00,78.0,55.0,29.88,East,90,0.0,1.0,46,0.00,,,0.00,TxWx,2013-05-10 19:17:00,
2013-05-10 15:22:00,78.0,55.0,29.88,South,180,5.0,7.0,46,0.00,,,0.00,TxWx,2013-05-10 19:22:00,
2013-05-10 15:27:00,78.0,55.0,29.89,South,180,5.0,5.0,46,0.00,,,0.00,TxWx,2013-05-10 19:27:00,
2013-05-10 15:28:00,70.0,59.0,29.80,South,180,11.0,14.0,67,0.00,,,0.00,TxWx,2013-05-10 19:28:00,
2013-05-10 15:29:00,70.0,59.0,29.80,SSW,202,6.0,10.0,67,0.00,,,0.00,TxWx,2013-05-10 19:29:00,
2013-05-10 15:30:00,70.0,59.0,29.80,SSE,157,6.0,8.0,67,0.00,,,0.00,TxWx,2013-05-10 19:30:00,
2013-05-10 15:31:00,70.0,59.0,29.80,SSE,157,9.0,12.0,67,0.00,,,0.00,TxWx,2013-05-10 19:31:00,
2013-05-10 15:32:00,78.0,55.0,29.89,SSE,157,1.0,2.0,46,0.00,,,0.00,TxWx,2013-05-10 19:32:00,
2013-05-10 15:33:00,70.0,59.0,29.80,SSE,157,10.0,11.0,67,0.00,,,0.00,TxWx,2013-05-10 19:33:00,
2013-05-10 15:35:00,70.0,59.0,29.80,SSE,157,8.0,8.0,67,0.00,,,0.00,TxWx,2013-05-10 19:35:00,
2013-05-10 15:37:00,78.0,55.0,29.88,East,90,2.0,3.0,46,0.00,,,0.00,TxWx,2013-05-10 19:37:00,
2013-05-10 15:42:00,78.0,55.0,29.88,SE,135,6.0,8.0,46,0.00,,,0.00,TxWx,2013-05-10 19:42:00,
2013-05-10 15:48:00,78.0,55.0,29.88,ESE,112,1.0,3.0,46,0.00,,,0.00,TxWx,2013-05-10 19:48:00,
2013-05-10 15:53:00,78.0,55.0,29.88,ESE,112,3.0,4.0,46,0.00,,,0.00,TxWx,2013-05-10 19:53:00,
2013-05-10 15:58:00,78.0,55.0,29.88,ESE,112,8.0,9.0,45,0.00,,,0.00,TxWx,2013-05-10 19:58:00,
2013-05-10 16:03:00,78.0,55.0,29.88,SE,135,3.0,3.0,45,0.00,,,0.00,TxWx,2013-05-10 20:03:00,
2013-05-10 16:08:00,78.0,55.0,29.88,East,90,4.0,6.0,45,0.00,,,0.00,TxWx,2013-05-10 20:08:00,
2013-05-10 16:12:00,69.0,60.0,29.80,South,180,8.0,13.0,70,0.00,,,0.00,TxWx,2013-05-10 20:12:00,
2013-05-10 16:13:00,78.0,55.0,29.87,SE,135,4.0,4.0,46,0.00,,,0.00,TxWx,2013-05-10 20:13:00,
2013-05-10 16:14:00,69.0,59.0,29.80,SSW,202,5.0,7.0,71,0.00,,,0.00,TxWx,2013-05-10 20:14:00,
2013-05-10 16:15:00,70.0,60.0,29.80,South,180,4.0,4.0,71,0.00,,,0.00,TxWx,2013-05-10 20:15:00,
2013-05-10 16:18:00,78.0,55.0,29.87,SE,135,4.0,6.0,46,0.00,,,0.00,TxWx,2013-05-10 20:18:00,
2013-05-10 16:23:00,78.0,55.0,29.87,SSE,157,7.0,7.0,46,0.00,,,0.00,TxWx,2013-05-10 20:23:00,
2013-05-10 16:28:00,78.0,55.0,29.87,ESE,112,7.0,9.0,46,0.00,,,0.00,TxWx,2013-05-10 20:28:00,
2013-05-10 16:33:00,79.0,57.0,29.87,SE,135,8.0,8.0,47,0.00,,,0.00,TxWx,2013-05-10 20:33:00,
2013-05-10 16:38:00,78.0,56.0,29.88,SSE,157,5.0,5.0,47,0.00,,,0.00,TxWx,2013-05-10 20:38:00,
2013-05-10 16:44:00,78.0,56.0,29.88,SE,135,6.0,7.0,47,0.00,,,0.00,TxWx,2013-05-10 20:44:00,
2013-05-10 16:49:00,78.0,56.0,29.87,SE,135,2.0,3.0,47,0.00,,,0.00,TxWx,2013-05-10 20:49:00,
2013-05-10 16:54:00,78.0,56.0,29.87,East,90,2.0,4.0,47,0.00,,,0.00,TxWx,2013-05-10 20:54:00,
2013-05-10 16:59:00,78.0,56.0,29.87,SE,135,3.0,4.0,48,0.00,,,0.00,TxWx,2013-05-10 20:59:00,
2013-05-10 17:04:00,78.0,57.0,29.87,ESE,112,4.0,6.0,48,0.00,,,0.00,TxWx,2013-05-10 21:04:00,
2013-05-10 17:07:00,68.0,59.0,29.78,SSE,157,3.0,4.0,73,0.00,,,0.00,TxWx,2013-05-10 21:07:00,
2013-05-10 17:08:00,68.0,59.0,29.79,South,180,8.0,8.0,73,0.00,,,0.00,TxWx,2013-05-10 21:08:00,
2013-05-10 17:09:00,78.0,56.0,29.87,ESE,112,6.0,6.0,47,0.00,,,0.00,TxWx,2013-05-10 21:09:00,
2013-05-10 17:14:00,78.0,56.0,29.86,SSE,157,5.0,6.0,48,0.00,,,0.00,TxWx,2013-05-10 21:14:00,
2013-05-10 17:15:00,68.0,59.0,29.78,ESE,112,7.0,7.0,74,0.00,,,0.00,TxWx,2013-05-10 21:15:00,
2013-05-10 17:16:00,68.0,59.0,29.78,ESE,112,4.0,4.0,74,0.00,,,0.00,TxWx,2013-05-10 21:16:00,
2013-05-10 17:17:00,68.0,59.0,29.78,SSE,157,6.0,6.0,74,0.00,,,0.00,TxWx,2013-05-10 21:17:00,
2013-05-10 17:18:00,68.0,59.0,29.78,ESE,112,6.0,7.0,74,0.00,,,0.00,TxWx,2013-05-10 21:18:00,
2013-05-10 17:19:00,78.0,56.0,29.87,ESE,112,6.0,6.0,47,0.00,,,0.00,TxWx,2013-05-10 21:19:00,
2013-05-10 17:24:00,78.0,56.0,29.86,SSE,157,8.0,8.0,47,0.00,,,0.00,TxWx,2013-05-10 21:24:00,
2013-05-10 17:29:00,78.0,55.0,29.86,ESE,112,5.0,7.0,47,0.00,,,0.00,TxWx,2013-05-10 21:29:00,
2013-05-10 17:34:00,78.0,56.0,29.86,ESE,112,6.0,7.0,47,0.00,,,0.00,TxWx,2013-05-10 21:34:00,
2013-05-10 17:39:00,78.0,56.0,29.86,ESE,112,4.0,4.0,47,0.00,,,0.00,TxWx,2013-05-10 21:39:00,
2013-05-10 17:44:00,78.0,56.0,29.86,SSE,157,5.0,6.0,47,0.00,,,0.00,TxWx,2013-05-10 21:44:00,
2013-05-10 17:49:00,79.0,57.0,29.86,SE,135,5.0,5.0,47,0.00,,,0.00,TxWx,2013-05-10 21:49:00,
2013-05-10 17:55:00,78.0,56.0,29.86,East,90,4.0,4.0,47,0.00,,,0.00,TxWx,2013-05-10 21:55:00,
2013-05-10 18:01:00,78.0,56.0,29.86,SE,135,6.0,8.0,48,0.00,,,0.00,TxWx,2013-05-10 22:01:00,
2013-05-10 18:06:00,78.0,57.0,29.85,South,180,5.0,7.0,48,0.00,,,0.00,TxWx,2013-05-10 22:06:00,
2013-05-10 18:11:00,78.0,57.0,29.85,South,180,4.0,4.0,49,0.00,,,0.00,TxWx,2013-05-10 22:11:00,
2013-05-10 18:16:00,78.0,57.0,29.85,ESE,112,6.0,6.0,49,0.00,,,0.00,TxWx,2013-05-10 22:16:00,
2013-05-10 18:22:00,78.0,58.0,29.85,SE,135,5.0,5.0,50,0.00,,,0.00,TxWx,2013-05-10 22:22:00,
2013-05-10 18:27:00,78.0,58.0,29.85,ESE,112,3.0,4.0,50,0.00,,,0.00,TxWx,2013-05-10 22:27:00,
2013-05-10 18:32:00,78.0,58.0,29.84,SSE,157,4.0,4.0,50,0.00,,,0.00,TxWx,2013-05-10 22:32:00,
2013-05-10 18:37:00,78.0,58.0,29.84,SSE,157,3.0,6.0,51,0.00,,,0.00,TxWx,2013-05-10 22:37:00,
2013-05-10 18:42:00,78.0,58.0,29.84,SE,135,3.0,3.0,51,0.00,,,0.00,TxWx,2013-05-10 22:42:00,
2013-05-10 18:50:00,77.0,57.0,29.84,ESE,112,6.0,6.0,51,0.00,,,0.00,TxWx,2013-05-10 22:50:00,
2013-05-10 18:55:00,77.0,57.0,29.84,ESE,112,4.0,5.0,51,0.00,,,0.00,TxWx,2013-05-10 22:55:00,
2013-05-10 19:00:00,77.0,57.0,29.84,ESE,112,2.0,3.0,51,0.00,,,0.00,TxWx,2013-05-10 23:00:00,
2013-05-10 19:05:00,77.0,57.0,29.85,SSE,157,3.0,3.0,51,0.00,,,0.00,TxWx,2013-05-10 23:05:00,
2013-05-10 19:11:00,77.0,57.0,29.85,ESE,112,3.0,5.0,51,0.00,,,0.00,TxWx,2013-05-10 23:11:00,
2013-05-10 19:16:00,77.0,57.0,29.85,SSE,157,1.0,3.0,51,0.00,,,0.00,TxWx,2013-05-10 23:16:00,
2013-05-10 19:21:00,77.0,57.0,29.85,SSE,157,5.0,5.0,51,0.00,,,0.00,TxWx,2013-05-10 23:21:00,
2013-05-10 19:26:00,76.0,57.0,29.85,South,180,10.0,10.0,51,0.00,,,0.00,TxWx,2013-05-10 23:26:00,
2013-05-10 19:31:00,76.0,57.0,29.85,ESE,112,5.0,5.0,52,0.00,,,0.00,TxWx,2013-05-10 23:31:00,
2013-05-10 19:36:00,76.0,57.0,29.85,SE,135,4.0,5.0,52,0.00,,,0.00,TxWx,2013-05-10 23:36:00,
2013-05-10 19:39:00,64.0,62.0,29.72,South,180,4.0,6.0,93,0.00,,,0.04,TxWx,2013-05-10 23:39:00,
2013-05-10 19:40:00,64.0,62.0,29.72,SSE,157,5.0,6.0,93,0.60,,,0.04,TxWx,2013-05-10 23:40:00,
2013-05-10 19:41:00,76.0,57.0,29.85,SSE,157,6.0,7.0,52,0.00,,,0.00,TxWx,2013-05-10 23:41:00,
2013-05-10 19:46:00,76.0,57.0,29.85,SSE,157,3.0,4.0,53,0.00,,,0.00,TxWx,2013-05-10 23:46:00,
2013-05-10 19:51:00,76.0,58.0,29.85,SSE,157,4.0,5.0,53,0.00,,,0.00,TxWx,2013-05-10 23:51:00,
2013-05-10 19:56:00,75.0,57.0,29.85,SSE,157,4.0,5.0,54,0.00,,,0.00,TxWx,2013-05-10 23:56:00,
2013-05-10 20:01:00,75.0,57.0,29.85,South,180,5.0,7.0,54,0.00,,,0.00,TxWx,2013-05-11 00:01:00,
2013-05-10 20:07:00,75.0,57.0,29.84,ESE,112,5.0,6.0,54,0.00,,,0.00,TxWx,2013-05-11 00:07:00,
2013-05-10 20:12:00,75.0,57.0,29.84,SSE,157,3.0,3.0,54,0.00,,,0.00,TxWx,2013-05-11 00:12:00,
2013-05-10 20:17:00,75.0,57.0,29.84,SSE,157,8.0,8.0,54,0.00,,,0.00,TxWx,2013-05-11 00:17:00,
2013-05-10 20:20:00,63.0,62.0,29.72,SSE,157,5.0,5.0,96,0.60,,,0.06,TxWx,2013-05-11 00:20:00,
2013-05-10 20:21:00,63.0,62.0,29.72,SSE,157,2.0,2.0,96,0.60,,,0.06,TxWx,2013-05-11 00:21:00,
2013-05-10 20:22:00,75.0,57.0,29.83,SSE,157,5.0,5.0,54,0.00,,,0.00,TxWx,2013-05-11 00:22:00,
2013-05-10 20:27:00,75.0,57.0,29.83,SSE,157,5.0,6.0,54,0.00,,,0.00,TxWx,2013-05-11 00:27:00,
2013-05-10 20:32:00,74.0,57.0,29.83,ESE,112,3.0,5.0,55,0.00,,,0.00,TxWx,2013-05-11 00:32:00,
2013-05-10 20:37:00,74.0,57.0,29.83,ESE,112,8.0,9.0,55,0.00,,,0.00,TxWx,2013-05-11 00:37:00,
2013-05-10 20:42:00,74.0,57.0,29.83,SSE,157,6.0,6.0,55,0.00,,,0.00,TxWx,2013-05-11 00:42:00,
2013-05-10 20:47:00,74.0,57.0,29.84,ESE,112,6.0,7.0,56,0.00,,,0.00,TxWx,2013-05-11 00:47:00,
2013-05-10 20:52:00,74.0,57.0,29.84,SSE,157,3.0,4.0,56,0.00,,,0.00,TxWx,2013-05-11 00:52:00,
2013-05-10 20:57:00,74.0,58.0,29.84,ESE,112,1.0,2.0,57,0.00,,,0.00,TxWx,2013-05-11 00:57:00,
2013-05-10 21:02:00,74.0,58.0,29.84,ESE,112,5.0,5.0,57,0.00,,,0.00,TxWx,2013-05-11 01:02:00,
2013-05-10 21:07:00,74.0,58.0,29.84,ESE,112,8.0,10.0,57,0.00,,,0.00,TxWx,2013-05-11 01:07:00,
2013-05-10 21:13:00,74.0,58.0,29.84,ESE,112,4.0,5.0,58,0.00,,,0.00,TxWx,2013-05-11 01:13:00,
2013-05-10 21:18:00,73.0,57.0,29.84,ESE,112,3.0,5.0,58,0.00,,,0.00,TxWx,2013-05-11 01:18:00,
2013-05-10 21:23:00,73.0,58.0,29.84,SE,135,6.0,7.0,59,0.00,,,0.00,TxWx,2013-05-11 01:23:00,
2013-05-10 21:28:00,73.0,58.0,29.84,SE,135,8.0,8.0,59,0.00,,,0.00,TxWx,2013-05-11 01:28:00,
2013-05-10 21:33:00,73.0,58.0,29.84,South,180,8.0,8.0,60,0.00,,,0.00,TxWx,2013-05-11 01:33:00,
2013-05-10 21:38:00,73.0,58.0,29.84,SSE,157,12.0,12.0,60,0.00,,,0.00,TxWx,2013-05-11 01:38:00,
2013-05-10 21:43:00,73.0,58.0,29.84,ESE,112,5.0,8.0,61,0.00,,,0.00,TxWx,2013-05-11 01:43:00,
2013-05-10 21:48:00,73.0,58.0,29.84,SSW,202,5.0,5.0,61,0.00,,,0.00,TxWx,2013-05-11 01:48:00,
2013-05-10 21:53:00,73.0,59.0,29.84,South,180,5.0,8.0,61,0.00,,,0.00,TxWx,2013-05-11 01:53:00,
2013-05-10 21:58:00,73.0,59.0,29.84,South,180,9.0,9.0,62,0.00,,,0.00,TxWx,2013-05-11 01:58:00,
2013-05-10 22:03:00,73.0,59.0,29.83,East,90,4.0,5.0,62,0.00,,,0.00,TxWx,2013-05-11 02:03:00,
2013-05-10 22:08:00,72.0,58.0,29.83,SSE,157,5.0,7.0,62,0.00,,,0.00,TxWx,2013-05-11 02:08:00,
2013-05-10 22:13:00,72.0,58.0,29.83,South,180,5.0,5.0,63,0.00,,,0.00,TxWx,2013-05-11 02:13:00,
2013-05-10 22:19:00,72.0,59.0,29.83,SE,135,6.0,6.0,63,0.00,,,0.00,TxWx,2013-05-11 02:19:00,
2013-05-10 22:24:00,72.0,59.0,29.84,South,180,5.0,6.0,63,0.00,,,0.00,TxWx,2013-05-11 02:24:00,
2013-05-10 22:29:00,72.0,59.0,29.83,SSE,157,6.0,6.0,64,0.00,,,0.00,TxWx,2013-05-11 02:29:00,
2013-05-10 22:34:00,72.0,59.0,29.83,ESE,112,4.0,6.0,64,0.00,,,0.00,TxWx,2013-05-11 02:34:00,
2013-05-10 22:39:00,72.0,59.0,29.84,SSW,202,6.0,7.0,64,0.00,,,0.00,TxWx,2013-05-11 02:39:00,
2013-05-10 22:44:00,72.0,59.0,29.83,ESE,112,6.0,7.0,64,0.00,,,0.00,TxWx,2013-05-11 02:44:00,
2013-05-10 22:49:00,72.0,59.0,29.83,SSE,157,6.0,8.0,63,0.00,,,0.00,TxWx,2013-05-11 02:49:00,
2013-05-10 22:54:00,71.0,58.0,29.83,SE,135,6.0,8.0,63,0.00,,,0.00,TxWx,2013-05-11 02:54:00,
2013-05-10 22:59:00,71.0,58.0,29.83,ESE,112,3.0,4.0,64,0.00,,,0.00,TxWx,2013-05-11 02:59:00,
2013-05-10 23:04:00,71.0,58.0,29.82,SE,135,6.0,6.0,64,0.00,,,0.00,TxWx,2013-05-11 03:04:00,
2013-05-10 23:09:00,71.0,58.0,29.82,ESE,112,4.0,5.0,64,0.00,,,0.00,TxWx,2013-05-11 03:09:00,
2013-05-10 23:14:00,71.0,58.0,29.82,SSE,157,6.0,6.0,64,0.00,,,0.00,TxWx,2013-05-11 03:14:00,
2013-05-10 23:19:00,71.0,58.0,29.82,SE,135,3.0,3.0,65,0.00,,,0.00,TxWx,2013-05-11 03:19:00,
2013-05-10 23:24:00,71.0,59.0,29.82,SSE,157,5.0,10.0,65,0.00,,,0.00,TxWx,2013-05-11 03:24:00,
2013-05-10 23:29:00,71.0,59.0,29.81,SE,135,11.0,13.0,65,0.00,,,0.00,TxWx,2013-05-11 03:29:00,
2013-05-10 23:34:00,71.0,59.0,29.81,SSE,157,8.0,12.0,66,0.00,,,0.00,TxWx,2013-05-11 03:34:00,
2013-05-10 23:40:00,71.0,59.0,29.81,SSE,157,8.0,9.0,66,0.00,,,0.00,TxWx,2013-05-11 03:40:00,
2013-05-10 23:45:00,71.0,59.0,29.81,South,180,5.0,6.0,66,0.00,,,0.00,TxWx,2013-05-11 03:45:00,
2013-05-10 23:50:00,71.0,59.0,29.81,ESE,112,2.0,4.0,66,0.00,,,0.00,TxWx,2013-05-11 03:50:00,
2013-05-10 23:55:00,71.0,59.0,29.81,SSE,157,8.0,8.0,67,0.00,,,0.00,TxWx,2013-05-11 03:55:00,